This is the latest recevied weather packets stored in our database for station/object KB3KBR-WX. If no packets are shown the sender has not sent any weather packets the latest 10 day(s).
| Time | Temp. | Humidity | Pressure | Rain* | Wind** | Luminosity | Snow |
|---|---|---|---|---|---|---|---|
| 1788045271 | 21.67° C | 70% | 1019.4 hPa | 0 mm | - | - | - |
| 1788044971 | 21.67° C | 69% | 1019.5 hPa | 0 mm | - | - | - |
| 1788044642 | 22.22° C | 68% | 1019.6 hPa | 0 mm | - | - | - |
| 1788044312 | 22.22° C | 68% | 1019.6 hPa | 0 mm | - | - | - |
| 1788044049 | 22.22° C | 68% | 1019.7 hPa | 0 mm | - | - | - |
| 1788044011 | 22.22° C | 68% | 1019.7 hPa | 0 mm | - | - | - |
| 1788043681 | 22.78° C | 66% | 1019.8 hPa | 0 mm | - | - | - |
| 1788043351 | 23.33° C | 65% | 1019.7 hPa | 0 mm | - | - | - |
| 1788043022 | 23.89° C | 60% | 1019.8 hPa | 0 mm | - | - | - |
| 1788042691 | 24.44° C | 58% | 1019.9 hPa | 0 mm | - | - | - |
| 1788042361 | 24.44° C | 55% | 1019.8 hPa | 0 mm | - | - | - |
| 1788042061 | 24.44° C | 55% | 1019.8 hPa | 0 mm | - | - | - |
| 1788041732 | 24.44° C | 54% | 1019.9 hPa | 0 mm | - | - | - |
| 1788041401 | 24.44° C | 54% | 1019.9 hPa | 0 mm | - | - | - |
| 1788041071 | 24.44° C | 55% | 1019.9 hPa | 0 mm | - | - | - |
| 1788040771 | 24.44° C | 54% | 1019.7 hPa | 0 mm | - | - | - |
| 1788040441 | 24.44° C | 53% | 1019.7 hPa | 0 mm | - | - | - |
| 1788040143 | 25° C | 53% | 1019.6 hPa | 0 mm | - | - | - |
| 1788039811 | 25° C | 55% | 1019.6 hPa | 0 mm | - | - | - |
| 1788039482 | 25° C | 53% | 1019.7 hPa | 0 mm | - | - | - |
| 1788039181 | 25.56° C | 51% | 1019.6 hPa | 0 mm | - | - | - |
| 1788038881 | 25.56° C | 52% | 1019.6 hPa | 0 mm | - | - | - |
| 1788038551 | 26.11° C | 50% | 1019.6 hPa | 0 mm | - | - | - |
| 1788038221 | 26.11° C | 50% | 1019.8 hPa | 0 mm | - | - | - |
| 1788037921 | 26.11° C | 50% | 1020 hPa | 0 mm | - | - | - |
* Rain latest hour (hover to see other rain measurements)
** Current wind speed in m/s (hover to see current wind gust speed)